Showing default

JY1SAT, 43803

Orbit data source: Space-Track

JY1SAT, 43803 is a payload satellite owned by JUST (JO) in SSO that was launched on Mon, 03 Dec 2018 UTC via an FALCON 9 launch vehicle from the Air Force Western Test Range (AFWTR). Payload-class satellites include a variety of spacecraft equipped with specific instruments for various scientific and technological missions. These include communications satellites like Starlink; space stations such as the ISS; scientific satellites like the Hubble; Earth observation satellites from companies like Planet Labs, Umbra, and HawkEye 360; GPS; miniature CubeSats for education and research; and military/defense satellites.

Loading next visibility...
Identifier
43803, 2018-099AX
Orbit
SSO
Country
Flag of JOJO / JOR
Related business
Manufacturer
JUST
Mission
Operational Amateur Technology
Bus & Motor
CUBESAT 1U, Unknown motor
Mass
1 kg wet, 1 kg dry
Launch date (UTC)
2018-12-03 (8 years ago)
Launch vehicle
FALCON 9
Launch site
Air Force Western Test Range (AFWTR)
Object type
Payload
Rocket body
Debris
Shape & HBR
Box, 0.1 m
Radar Cross Section
0.015 m², Medium (>0.1 m² and < 1m²)

Expand to show TLE details & history
Last TLE update: 1 week ago

TLE from 1 week ago
0 JY1SAT
1 43803U 18099AX  26155.11004530  .00019257  00000-0  60141-3 0  9997
2 43803  97.4133 217.9030 0004305 327.2948  32.8027 15.33220920411629
Epoch: 2026-06-04T02:38Z
TLE epoch observation values (Epoch: 2026-06-04T02:38:27.913Z)
Latitude
-0.00007°
Longitude
-74.27232°
Altitude
466.841 km
Speed
7.634 km/s
True Right ascension
14h 31m 36s
True Declination
0° 00' 00"
Sunlit
Object was in full shadow at epoch
Visualization orbit readout
Latitude
Unknown
Longitude
Unknown
Altitude
Unknown
Speed
Unknown
Apparent Right ascension
Unknown
Apparent Declination
Unknown
Sunlit
N/A
Visualization observer readout
Local Sidereal Time
02:04:36
Azimuth
Unknown
Elevation
Unknown
Doppler factor
Unknown
Orbital elements
Apogee altitude
466.104 km
Perigee altitude
460.213 km
Semi-major axis
6,841.295 km
Eccentricity
0.00043
Inclination
97.4133°
RAAN
217.903°
Arg. of periapsis
327.2948°
True anomaly
32.82944°
Mean anomaly
32.8027°
Eccentric anomaly
32.81607°
Mean motion
3.83562 °/min
Orbital period
93.86 mins
BSTAR
0.00060141
Loading maneuver chart data...
Computing Atmospheric mass density...
Loading historical data...
Loading historical data...
Loading historical data...
Loading historical data...
Loading historical data...
Loading historical data...
Loading historical data...

Documentation

Showing up to 5 results
|